Location: Arad
(46.1866°N, 21.3123°E)
Time: 04:17:54
(UTC+02:00)

ISS - Visible Passes

Search period start: 24 March 2023 00:00
Search period end: 03 April 2023 01:00
Orbit: 414 x 422 km, 51.6° (Epoch: 23 March)

Date Brightness Start Highest point End Pass type
(mag) Time Alt. Az. Time Alt. Az. Time Alt. Az.
24 Mar -2.3 19:43:37 10° WNW 19:46:40 32° N 19:49:43 10° ENE visible
24 Mar -1.8 21:20:46 10° WNW 21:22:46 28° NNW 21:22:46 28° NNW visible
25 Mar -2.6 20:32:51 10° WNW 20:35:57 34° N 20:36:47 29° NE visible
25 Mar -0.2 22:09:38 10° WNW 22:09:43 11° WNW 22:09:43 11° WNW visible
26 Mar -2.4 20:44:51 10° WNW 20:47:53 31° N 20:50:47 11° ENE visible
26 Mar -2.0 22:21:42 10° WNW 22:23:43 33° NW 22:23:43 33° NW visible
27 Mar -3.3 21:33:45 10° WNW 21:37:02 49° NNE 21:37:41 42° ENE visible
28 Mar -2.8 20:45:45 10° WNW 20:48:57 39° NNE 20:51:38 13° E visible
28 Mar -2.1 22:22:33 10° WNW 22:24:34 32° W 22:24:34 32° W visible
29 Mar -3.9 21:34:29 10° WNW 21:37:50 86° SSW 21:38:31 54° SE visible
30 Mar -3.6 20:46:26 10° WNW 20:49:46 66° NNE 20:52:29 14° ESE visible
30 Mar -1.6 22:23:35 10° W 22:25:25 21° WSW 22:25:25 21° WSW visible
31 Mar -2.7 21:35:14 10° WNW 21:38:21 36° SW 21:39:25 28° S visible
01 Apr -3.3 20:46:59 10° WNW 20:50:18 58° SSW 20:53:26 11° SE visible
02 Apr -1.2 21:36:28 10° W 21:38:31 15° SW 21:40:27 10° S visible
